軌道要素
Epoch 2014 May 23.0 TT = JDT 2456800.5
T 2014 May 22.01458 TT Bell
q 2.1411176 (2000.0) P Q
n 0.13781580 Peri. 185.81453 -0.71076192 +0.68168117
a 3.7119607 Node 39.08921 -0.63378594 -0.51353577
e 0.4231842 Incl. 15.97897 -0.30517679 -0.52114469
P 7.15
From 423 observations 2014 Jan. 6-2021 Jan. 10, mean residual 0".8.
|